Temp_Advection
nan nan nan nan nan nan nan nan nan nan nan nan nan nan nan nan nan nan nan nan nan nan nan nan nan nan nan nan nan nan nan nan nan nan nan nan nan nan nan nan nan nan nan nan
nan -0 -2 -1 -0 0 0 0 -0 -1 -0 -0 -0 1 0 -0 -1 -0 -0 -1 -1 -2 -0 0 1 2 1 1 1 0 0 0 0 0 0 0 0 0 0 1 1 1 0 nan
nan -1 -1 -0 -0 -0 0 0 0 -0 -0 -0 0 0 -0 -0 -1 -0 -1 -1 -0 -0 -1 0 1 1 1 1 0 0 0 0 0 1 0 0 1 1 1 1 1 0 1 nan
nan -0 -1 -1 -1 -0 -0 -0 0 0 0 -1 0 0 -1 -0 -0 -1 -1 -1 -1 -1 -0 1 0 0 0 0 0 0 0 0 1 -0 -0 0 0 0 0 1 1 1 1 nan
nan -0 -0 -1 -0 -0 0 -1 0 0 0 -0 -0 -0 -1 0 -0 -0 -1 -1 -1 0 0 -0 0 0 0 0 0 -0 0 -0 0 -0 -0 0 1 0 0 1 1 1 0 nan
nan -1 0 -0 -0 -0 -0 0 0 0 0 -0 -0 0 -1 -1 -1 -1 -1 -1 -1 1 1 1 -0 -0 -0 -0 -0 -0 0 -0 -0 -0 0 0 0 1 0 0 1 1 1 nan
nan -1 -1 -0 -0 -1 -1 -1 -0 -0 0 -1 -0 0 -1 -0 -0 -1 -0 -1 0 1 0 0 -0 -0 -0 -0 -0 -0 -0 0 -0 -0 -1 -0 1 0 -0 0 1 1 1 nan
nan -1 -1 -1 -0 -0 -0 -0 0 -0 -0 -1 -0 -0 -1 -1 -1 -1 1 0 2 1 0 -0 -0 -0 -0 -0 -0 -0 -0 -0 -0 -0 -0 -1 -0 -0 -0 0 0 0 0 nan
nan -1 -1 -0 -0 0 0 0 0 -0 -0 -0 -0 -1 -1 -1 -0 -0 1 0 1 1 0 0 -0 -0 -0 -0 -0 0 -0 -0 0 0 0 0 -0 -1 -0 -0 0 -0 -0 nan
nan -0 -1 -0 -1 -1 -0 0 -0 -0 -0 -0 -0 0 -0 -2 -1 -1 -0 1 1 1 0 0 -0 -0 -0 0 0 0 -0 -0 -0 0 0 0 0 -0 -1 -0 0 -0 -0 nan
nan 0 -1 -1 0 -0 -0 0 0 -0 -0 -0 -0 -0 -1 -3 -2 -0 -1 -2 2 0 0 0 0 -0 -0 0 0 0 -0 -0 -0 -0 0 0 0 0 -0 -1 -0 -0 -0 nan
nan 0 -0 -1 -1 -0 0 -0 0 0 -0 -0 0 -0 0 -0 -2 -0 -1 0 1 0 -0 -0 -0 0 1 0 0 0 -0 -0 -0 -0 -0 0 -0 0 0 -0 -1 -0 0 nan
nan 0 -0 -1 -0 -0 -1 -0 0 0 0 -0 -0 -0 0 -0 -1 -1 0 -3 1 0 0 -0 -1 -1 -0 -0 -0 -0 -0 -0 -0 -0 -0 -0 -0 -0 -0 -0 -0 -1 -0 nan
nan 0 0 -0 -1 0 0 -2 -1 -0 -0 -0 -0 -0 0 0 0 -1 -1 -1 -4 0 -0 -1 -1 -1 -0 -0 -0 -0 -0 -0 -1 -1 -0 -0 -0 -0 -0 -0 -0 -1 -0 nan
nan 0 -0 -0 -0 -1 -0 -0 -0 0 0 -0 -0 -0 0 0 0 0 -1 -3 -3 -2 -3 -2 -2 -1 -1 -1 -0 -0 -0 -0 -0 -1 -1 -0 -0 -0 -0 -0 -0 -1 -0 nan
nan 0 -0 -0 -0 -0 -0 -0 -0 -0 0 -0 -0 -0 -0 -1 0 -0 -1 -1 -2 -3 -3 -3 -2 -2 -1 -1 -1 -1 -1 -1 -0 -1 -1 -1 -0 -1 -0 -0 -0 -0 -1 nan
nan -0 -0 -0 -0 -0 -0 -0 -1 -1 -1 -1 -1 -1 0 0 -0 -1 -1 -2 -2 -2 -2 -1 -1 -1 -1 -1 -1 -1 -1 -1 -1 -1 -1 -1 -1 -1 -1 -0 -0 -1 -1 nan
nan 0 0 -0 -0 -0 -0 -1 -1 -1 -2 -2 -0 -0 -1 -1 -1 -1 -1 -1 -1 -1 -1 -1 -1 -1 -1 -2 -2 -1 -1 -1 -2 -2 -2 -1 -1 -2 -1 -0 -1 -1 -1 nan
nan 0 0 0 -0 0 -2 -0 -0 -0 -0 -1 -1 -0 -1 -1 -0 -1 -1 -1 -1 -1 -1 -1 -1 -1 -1 -2 -2 -2 -1 -0 -0 -2 -3 -2 -1 -2 -1 -1 -0 -1 -1 nan
nan -0 0 -0 -0 -0 -0 -1 0 0 0 -1 -1 -1 -1 -0 -0 -0 -1 -0 -0 -0 -1 -1 -1 -1 -1 -1 -2 -2 -2 -1 -0 -0 -0 -1 -1 -2 -2 -1 -1 -1 -0 nan
nan -0 -0 -0 -0 -0 -0 -1 -1 -0 0 -0 -1 -1 -0 -0 -1 -0 -0 -0 -1 -1 -1 -1 -1 -1 -1 -1 -1 -1 -1 -1 -1 -1 -1 -0 -0 -1 -2 -1 -0 -0 -1 nan
nan 0 -0 -0 -0 -0 -0 -0 -1 -0 -0 -0 -0 -0 -0 -0 -0 -0 -0 -1 -1 -1 -1 -1 -1 -1 -0 -1 -1 -2 -1 -1 -1 -1 -2 -1 -0 -2 -2 -1 -0 -0 -0 nan
nan 0 -0 0 0 -0 -0 -0 -0 -0 -0 -0 -0 -0 -0 -0 -0 -1 -1 -1 -1 -1 -1 -1 -1 -1 -1 -0 -0 -1 -2 -1 -1 -1 -1 -1 -1 -2 -2 -1 -1 0 2 nan
nan -0 -0 -0 -0 0 -0 -0 -0 -0 0 -0 -0 -0 -0 -1 -1 -1 -1 -1 -1 -1 -1 -1 -1 -1 -1 -1 -1 -1 -1 -1 -1 -1 -1 -1 -1 -2 -1 -1 -1 0 1 nan
nan 0 0 0 -0 -0 -0 -0 0 0 -0 -0 -0 -0 -1 -1 -1 -1 -1 -1 -1 -1 -0 -0 -0 -0 -0 -1 -1 -1 -1 -1 -1 -1 -1 -1 -1 -1 -1 -1 -0 -0 0 nan
nan nan nan nan nan nan nan nan nan nan nan nan nan nan nan nan nan nan nan nan nan nan nan nan nan nan nan nan nan nan nan nan nan nan nan nan nan nan nan nan nan nan nan nan
Wind_Speed
13 3 7 12 14 18 16 16 20 19 18 10 15 8 11 10 20 19 26 26 31 9 14 22 23 26 22 22 19 16 15 12 13 17 29 29 30 31 30 28 35 27 32 34
6 7 13 13 14 15 14 16 15 14 10 10 13 18 10 5 15 21 24 21 24 30 15 18 20 28 21 18 17 10 11 13 11 13 18 23 29 34 33 31 29 36 32 33
8 13 16 14 13 12 14 13 9 14 14 11 12 14 8 6 17 33 31 28 26 27 24 15 21 23 19 15 12 12 17 22 22 22 21 24 27 30 32 35 31 29 37 35
8 7 17 15 16 12 17 9 10 12 10 11 2 12 17 6 14 19 25 26 25 25 15 21 17 12 13 10 5 9 12 18 19 18 21 27 28 33 36 37 29 26 28 39
8 15 15 16 12 14 21 20 17 10 8 7 12 6 23 8 11 14 20 28 26 18 11 17 22 21 14 10 6 3 10 8 15 16 15 24 29 27 35 36 34 28 26 30
12 19 12 9 12 15 16 22 17 8 4 10 15 5 20 13 13 13 16 29 37 23 14 23 22 16 16 9 5 5 8 8 11 13 17 21 24 24 27 30 30 32 30 34
11 10 8 6 8 10 17 13 6 9 7 12 10 9 18 11 12 16 18 12 14 34 30 22 22 19 12 8 7 6 9 11 8 12 17 17 25 20 23 28 26 28 31 35
6 8 13 19 13 9 8 3 5 6 5 11 7 11 16 9 15 28 29 14 31 29 26 25 20 16 14 9 4 4 9 7 6 9 15 20 14 22 23 24 25 26 25 27
6 9 14 16 16 10 10 7 2 7 8 7 5 8 11 18 22 17 21 21 30 25 21 21 17 13 11 6 2 2 10 11 12 13 13 16 14 17 23 26 28 29 26 22
6 10 11 12 13 14 5 3 4 3 4 5 5 7 6 14 9 14 9 16 22 22 16 18 17 15 12 7 5 6 11 14 15 16 14 19 19 16 19 28 25 30 24 25
6 6 10 12 5 14 12 8 1 3 6 3 4 3 13 21 21 11 15 17 19 14 12 12 8 7 5 4 6 4 7 12 14 17 20 18 18 18 19 20 28 30 25 26
6 3 8 12 14 14 6 4 3 4 4 2 3 2 14 21 20 13 14 8 11 12 15 10 5 5 12 10 8 2 4 10 14 18 22 23 20 18 19 21 28 24 27 28
5 3 6 7 3 5 6 10 3 2 3 3 3 4 11 17 20 8 7 21 8 9 8 5 8 11 21 13 9 8 10 13 19 22 24 23 22 18 20 21 25 28 26 29
7 2 8 10 13 9 4 18 17 6 2 3 4 11 6 12 15 17 11 19 30 7 9 14 20 17 12 9 8 7 12 18 23 24 24 22 22 21 21 22 25 26 28 31
1 2 7 9 13 14 16 17 10 11 7 5 8 8 5 10 6 17 24 36 30 15 26 21 20 15 12 10 10 15 18 23 26 26 26 24 20 24 22 23 22 24 26 31
1 3 3 8 12 12 12 12 12 7 14 6 8 4 7 10 8 8 14 16 26 30 30 28 27 23 18 14 15 20 25 26 29 30 26 25 22 22 24 22 18 22 29 31
4 3 3 4 7 13 5 6 12 14 6 7 6 10 11 6 11 14 16 20 24 25 23 21 22 22 19 19 21 25 30 29 27 29 26 27 26 22 24 22 19 23 28 33
4 4 2 4 5 2 8 18 11 14 22 19 15 14 12 12 9 15 20 21 22 22 23 21 21 22 23 24 25 27 26 26 27 28 27 26 26 24 23 23 21 17 30 35
5 1 3 1 2 7 17 17 11 11 7 20 12 14 13 18 4 14 17 16 16 17 18 20 20 22 25 27 26 26 26 26 27 29 29 27 27 26 22 23 25 16 32 34
8 4 1 0 2 3 8 17 24 14 2 19 16 12 12 14 5 4 17 17 19 20 18 18 18 17 22 25 28 28 25 24 26 28 29 29 27 27 23 23 22 21 34 39
5 4 3 4 2 4 13 22 22 5 6 25 22 16 14 6 8 11 16 18 18 17 15 15 13 13 16 23 26 27 26 25 25 27 27 30 28 26 23 25 23 20 28 41
2 3 3 3 5 4 19 7 6 5 13 18 17 18 12 14 13 13 15 13 15 15 17 17 15 14 15 20 24 27 27 27 26 26 25 26 25 24 22 23 22 22 27 43
3 2 3 3 2 2 6 2 11 11 12 14 15 14 16 13 14 11 11 12 13 17 19 20 20 21 21 24 25 28 28 27 26 25 24 24 24 22 19 20 21 25 34 40
2 0 2 3 4 10 6 10 13 14 13 16 16 15 16 14 14 13 14 15 17 19 19 21 23 24 25 26 26 25 26 25 24 23 22 21 22 22 19 17 20 25 32 39
3 1 3 2 5 7 15 14 14 15 15 11 13 14 14 14 15 15 14 17 18 18 20 23 25 26 26 25 25 25 23 22 21 19 19 17 16 16 15 13 15 22 29 34
1 1 1 1 6 6 5 12 11 13 15 12 13 13 14 15 15 16 17 19 21 22 20 24 26 25 24 23 23 27 23 20 19 17 16 14 12 9 6 3 4 12 21 32
Wind_Direction
254 154 222 230 219 235 246 252 264 275 286 275 281 239 267 283 296 299 296 302 321 248 193 200 218 215 214 200 192 193 200 205 209 220 231 238 245 248 249 246 224 227 229 229
326 227 236 248 245 251 253 255 265 284 282 275 274 275 248 258 281 282 287 292 296 295 249 199 198 206 186 187 207 224 243 253 256 263 259 250 246 249 258 256 247 225 229 231
305 290 311 315 304 301 281 260 266 260 274 276 282 277 266 241 258 274 276 281 280 293 305 196 168 157 162 174 201 240 262 268 262 263 263 257 252 244 245 248 247 234 228 227
274 328 326 318 312 315 300 321 307 311 290 278 261 284 271 260 241 263 268 271 269 266 301 172 165 144 159 157 198 255 278 277 259 258 253 249 247 243 239 245 249 234 231 230
260 291 288 296 295 303 290 300 292 285 296 299 270 280 284 222 245 241 260 263 263 224 143 122 125 133 141 143 169 296 288 307 261 257 254 237 244 248 245 243 240 239 238 227
274 276 251 260 300 295 289 277 283 270 267 268 265 231 277 273 264 248 258 259 254 230 247 174 136 115 113 97 55 359 284 305 283 285 274 257 248 245 244 245 245 246 241 237
310 297 310 19 347 333 359 353 305 269 243 250 243 245 243 284 275 264 273 267 203 164 143 134 128 109 97 69 28 2 325 277 325 296 311 315 250 252 250 254 256 247 239 232
338 329 356 342 340 316 331 43 266 261 249 254 261 243 255 264 260 258 270 164 133 139 131 135 130 118 100 91 45 348 326 347 357 333 325 327 275 253 249 252 255 245 238 235
311 280 320 323 332 331 308 291 169 298 245 257 257 279 307 281 257 253 233 150 134 136 136 136 131 128 119 128 169 328 326 339 340 310 309 306 302 274 253 246 250 252 235 232
332 313 315 319 333 318 290 329 352 256 276 232 241 244 256 318 4 17 43 118 119 132 135 128 117 127 146 176 230 299 322 334 350 345 316 292 296 286 278 249 251 245 234 236
287 280 307 318 298 297 333 290 235 296 262 282 327 283 359 2 325 40 4 325 100 126 112 97 132 144 141 228 227 261 311 337 347 345 341 331 289 280 279 272 245 241 235 233
15 284 294 313 306 315 297 18 34 242 335 323 204 246 12 11 352 85 332 16 92 17 70 59 64 186 200 166 150 142 348 342 342 339 335 337 322 280 275 273 261 232 227 232
349 333 314 314 8 5 359 307 239 245 245 247 327 321 2 22 346 331 123 299 114 106 107 67 42 72 112 103 77 31 350 334 326 329 329 325 330 298 274 273 271 250 232 231
18 265 272 282 281 284 300 289 279 194 218 289 261 302 342 12 355 330 323 351 324 20 42 52 90 80 91 76 44 357 329 327 322 324 323 318 318 319 283 271 269 259 248 231
132 281 314 309 308 302 298 300 313 304 263 169 277 287 19 16 357 311 333 317 313 12 32 73 63 59 38 14 345 327 326 326 327 323 319 319 305 308 303 271 272 263 246 229
273 270 282 307 296 281 317 310 325 306 302 248 248 262 100 70 235 233 281 333 39 42 41 38 32 31 21 2 336 324 322 318 317 315 314 313 305 304 311 282 271 263 251 229
255 298 319 262 314 321 316 21 339 334 8 12 38 21 69 109 29 41 22 24 26 24 28 28 17 10 357 340 329 322 317 315 310 308 313 312 312 300 307 293 269 268 259 237
287 323 248 277 304 284 59 24 352 358 31 20 40 24 0 347 27 47 27 20 16 13 9 355 350 339 330 321 315 315 313 314 312 311 312 311 309 300 303 300 280 260 253 213
22 353 296 160 292 265 31 343 328 345 15 13 354 353 352 336 300 41 20 25 16 7 356 354 352 342 329 325 322 322 320 317 318 317 316 313 311 308 298 298 281 289 232 214
339 123 299 281 243 37 339 318 326 314 171 360 332 343 347 5 64 16 8 10 10 14 10 358 356 340 330 326 322 324 325 321 320 319 319 316 312 307 292 301 290 273 231 226
337 349 335 331 327 81 348 335 344 44 321 331 330 343 358 24 28 13 7 14 16 7 348 342 343 349 338 315 314 321 331 328 325 318 317 311 312 307 302 290 278 262 242 217
344 350 330 351 18 356 3 357 44 296 314 333 341 13 31 37 29 22 17 2 1 339 336 332 326 322 316 316 324 331 337 332 328 319 314 308 311 309 302 299 285 255 249 201
17 3 326 335 36 28 18 7 13 349 335 351 10 22 20 27 21 15 4 352 349 345 337 335 336 335 335 337 342 339 338 333 330 322 318 316 316 311 305 304 287 249 227 208
89 51 246 333 46 3 55 31 15 1 1 10 12 17 18 15 15 8 356 352 354 352 352 348 349 349 349 353 350 344 338 334 331 326 324 322 318 316 307 300 281 253 221 207
170 222 302 265 22 354 16 14 9 4 5 12 14 16 14 9 6 3 357 358 356 354 359 356 357 355 355 354 352 348 343 339 338 334 329 326 319 320 317 305 270 241 224 214
4 154 101 300 8 303 335 354 8 11 12 21 20 14 7 2 360 355 357 357 357 1 3 356 359 358 359 357 356 355 354 350 347 342 339 336 328 325 316 310 243 228 231 222
Height
1459 1468 1474 1467 1462 1458 1459 1461 1456 1446 1439 1441 1437 1437 1431 1428 1428 1428 1427 1425 1422 1415 1414 1418 1424 1428 1429 1433 1437 1442 1446 1449 1451 1452 1454 1456 1457 1459 1461 1465 1469 1472 1474 1477
1461 1465 1454 1450 1450 1450 1449 1450 1450 1438 1435 1435 1432 1427 1424 1422 1424 1423 1422 1422 1421 1415 1413 1413 1418 1421 1423 1427 1432 1436 1439 1442 1445 1447 1448 1450 1453 1453 1456 1459 1462 1466 1469 1471
1467 1458 1448 1447 1448 1446 1442 1443 1443 1441 1432 1429 1429 1429 1423 1415 1416 1414 1415 1416 1417 1414 1412 1408 1413 1415 1419 1422 1427 1433 1436 1438 1439 1441 1444 1446 1446 1449 1450 1450 1454 1459 1462 1466
1459 1451 1452 1451 1449 1446 1445 1438 1436 1434 1435 1441 1428 1440 1418 1416 1412 1409 1407 1410 1411 1409 1408 1404 1414 1417 1418 1420 1424 1429 1434 1436 1437 1439 1439 1440 1441 1442 1443 1444 1449 1453 1456 1458
1464 1457 1455 1453 1446 1444 1442 1434 1436 1431 1435 1437 1428 1438 1402 1411 1410 1408 1402 1401 1403 1407 1412 1412 1411 1413 1418 1420 1423 1427 1432 1435 1436 1437 1435 1436 1436 1437 1438 1439 1444 1448 1450 1451
1455 1450 1448 1447 1442 1440 1435 1431 1428 1429 1433 1440 1425 1435 1418 1418 1409 1401 1396 1394 1391 1396 1405 1410 1410 1413 1417 1419 1423 1425 1432 1433 1432 1434 1434 1433 1432 1432 1433 1435 1437 1441 1442 1444
1457 1451 1445 1441 1446 1440 1438 1443 1445 1443 1442 1435 1419 1426 1416 1401 1399 1396 1395 1392 1380 1391 1403 1406 1406 1409 1414 1418 1421 1425 1432 1430 1429 1430 1430 1429 1428 1428 1429 1431 1432 1433 1435 1436
1466 1465 1453 1449 1454 1452 1448 1453 1460 1444 1439 1430 1419 1419 1403 1397 1390 1389 1390 1393 1384 1391 1395 1402 1406 1408 1411 1415 1421 1426 1429 1429 1428 1427 1427 1426 1425 1425 1425 1426 1427 1428 1429 1430
1470 1464 1456 1453 1451 1454 1448 1449 1452 1453 1440 1442 1426 1407 1398 1391 1381 1380 1382 1387 1385 1392 1397 1399 1404 1406 1409 1416 1422 1425 1424 1425 1425 1425 1424 1423 1422 1421 1421 1422 1423 1423 1424 1426
1470 1471 1460 1454 1453 1449 1449 1445 1453 1451 1438 1432 1418 1413 1412 1397 1392 1387 1384 1383 1390 1394 1400 1399 1401 1405 1412 1417 1419 1420 1420 1422 1424 1423 1421 1419 1418 1417 1416 1417 1418 1418 1419 1422
1469 1468 1464 1459 1456 1455 1450 1447 1449 1454 1443 1431 1433 1421 1427 1421 1410 1400 1399 1397 1390 1399 1397 1398 1404 1408 1412 1416 1418 1416 1416 1418 1421 1420 1419 1416 1414 1414 1413 1412 1413 1414 1415 1419
1473 1471 1469 1465 1455 1452 1446 1453 1456 1451 1450 1447 1444 1434 1432 1428 1421 1402 1412 1407 1405 1400 1398 1403 1407 1410 1412 1413 1413 1414 1415 1416 1417 1417 1415 1412 1411 1410 1409 1408 1408 1409 1410 1413
1476 1478 1480 1461 1456 1450 1457 1450 1447 1456 1455 1453 1448 1432 1430 1425 1430 1421 1413 1407 1407 1406 1408 1408 1409 1407 1410 1413 1412 1411 1413 1413 1414 1413 1412 1410 1407 1405 1404 1404 1403 1402 1404 1407
1475 1476 1478 1479 1468 1458 1465 1455 1439 1440 1449 1445 1441 1432 1429 1431 1433 1427 1422 1419 1417 1408 1409 1408 1408 1410 1412 1412 1410 1412 1412 1412 1411 1409 1408 1406 1403 1401 1400 1399 1397 1396 1398 1400
1475 1479 1474 1467 1461 1455 1449 1443 1434 1435 1432 1443 1430 1428 1426 1431 1437 1427 1428 1420 1414 1410 1407 1408 1410 1413 1410 1409 1411 1412 1412 1410 1407 1405 1403 1401 1399 1398 1395 1393 1391 1391 1393 1392
1475 1477 1468 1459 1452 1452 1447 1441 1434 1430 1424 1423 1422 1424 1422 1430 1435 1433 1434 1428 1418 1411 1413 1415 1417 1414 1412 1411 1411 1411 1410 1408 1405 1402 1400 1396 1395 1393 1389 1386 1385 1385 1387 1388
1475 1469 1467 1461 1450 1449 1447 1444 1439 1435 1425 1425 1431 1443 1433 1436 1436 1436 1433 1427 1422 1419 1417 1417 1417 1416 1414 1412 1411 1409 1407 1405 1402 1398 1395 1392 1390 1386 1383 1380 1379 1379 1380 1382
1470 1469 1468 1461 1456 1459 1449 1450 1450 1447 1447 1446 1443 1444 1441 1439 1437 1435 1434 1430 1426 1425 1423 1420 1418 1418 1415 1413 1410 1407 1404 1401 1398 1394 1389 1387 1384 1381 1378 1376 1375 1373 1374 1374
1468 1469 1468 1473 1460 1447 1459 1459 1461 1453 1454 1454 1450 1445 1444 1439 1435 1436 1436 1435 1432 1428 1425 1422 1421 1419 1416 1412 1409 1405 1401 1397 1395 1391 1385 1381 1378 1375 1373 1372 1370 1368 1367 1368
1466 1465 1469 1462 1461 1459 1473 1461 1454 1454 1453 1460 1456 1450 1447 1444 1439 1441 1438 1435 1433 1431 1430 1428 1425 1422 1417 1412 1407 1404 1400 1396 1391 1386 1381 1377 1373 1370 1367 1366 1365 1363 1363 1362
1477 1477 1470 1465 1464 1467 1474 1459 1444 1451 1472 1462 1459 1453 1447 1444 1446 1445 1442 1438 1436 1433 1431 1428 1427 1425 1419 1411 1408 1403 1397 1390 1385 1381 1377 1373 1369 1365 1362 1360 1359 1358 1357 1354
1486 1491 1483 1477 1492 1485 1476 1466 1469 1477 1471 1467 1460 1456 1452 1450 1450 1447 1445 1443 1440 1439 1433 1430 1427 1424 1420 1413 1404 1395 1389 1385 1381 1378 1373 1369 1365 1361 1358 1355 1353 1353 1352 1350
1493 1485 1485 1481 1479 1482 1480 1478 1477 1473 1470 1466 1462 1459 1456 1454 1452 1451 1449 1446 1442 1433 1431 1429 1422 1414 1409 1403 1395 1389 1385 1381 1378 1374 1369 1364 1361 1358 1354 1351 1349 1348 1349 1350
1481 1482 1484 1480 1481 1479 1479 1478 1475 1472 1468 1465 1463 1460 1457 1455 1452 1449 1445 1441 1436 1432 1428 1423 1416 1410 1403 1396 1392 1389 1384 1379 1375 1371 1366 1363 1359 1354 1350 1347 1345 1343 1344 1343
1482 1481 1479 1479 1479 1477 1477 1477 1475 1472 1469 1466 1463 1461 1458 1455 1452 1449 1444 1439 1435 1431 1425 1420 1413 1406 1401 1396 1393 1389 1384 1379 1374 1370 1365 1362 1358 1353 1349 1345 1343 1342 1341 1338
1479 1481 1484 1481 1482 1481 1479 1477 1475 1472 1469 1466 1463 1460 1457 1454 1451 1447 1443 1438 1433 1428 1423 1418 1413 1408 1403 1399 1395 1390 1384 1379 1374 1370 1366 1362 1358 1355 1351 1347 1344 1340 1338 1339